TimePDT,TemperatureF,Dew PointF,Humidity,Sea Level PressureIn,VisibilityMPH,Wind Direction,Wind SpeedMPH,Gust SpeedMPH,PrecipitationIn,Events,Conditions,WindDirDegrees,DateUTC
12:56 AM,60.1,35.1,39,30.12,10.0,Calm,Calm,-,N/A,,Clear,0,2013-10-05 07:56:00
1:56 AM,59.0,35.1,41,30.13,10.0,Calm,Calm,-,N/A,,Clear,0,2013-10-05 08:56:00
2:56 AM,55.9,36.0,47,30.14,10.0,SE,3.5,-,N/A,,Clear,130,2013-10-05 09:56:00
3:56 AM,55.0,37.0,51,30.15,10.0,Calm,Calm,-,N/A,,Clear,0,2013-10-05 10:56:00
4:56 AM,53.1,37.0,55,30.15,10.0,Calm,Calm,-,N/A,,Clear,0,2013-10-05 11:56:00
5:56 AM,54.0,37.9,55,30.16,10.0,Calm,Calm,-,N/A,,Clear,0,2013-10-05 12:56:00
6:56 AM,53.1,37.0,55,30.17,10.0,Calm,Calm,-,N/A,,Clear,0,2013-10-05 13:56:00
7:56 AM,54.0,37.9,55,30.19,10.0,Calm,Calm,-,N/A,,Clear,0,2013-10-05 14:56:00
8:56 AM,61.0,37.9,42,30.20,10.0,Calm,Calm,-,N/A,,Clear,0,2013-10-05 15:56:00
9:56 AM,68.0,32.0,26,30.22,10.0,Calm,Calm,-,N/A,,Clear,0,2013-10-05 16:56:00
10:56 AM,72.0,30.0,21,30.21,10.0,Calm,Calm,-,N/A,,Clear,0,2013-10-05 17:56:00
11:56 AM,75.9,30.0,19,30.20,10.0,Calm,Calm,-,N/A,,Clear,0,2013-10-05 18:56:00
12:56 PM,80.1,28.9,15,30.18,10.0,North,5.8,-,N/A,,Clear,350,2013-10-05 19:56:00
1:56 PM,81.0,28.0,14,30.15,10.0,North,5.8,-,N/A,,Clear,360,2013-10-05 20:56:00
2:56 PM,82.9,28.9,14,30.14,10.0,North,5.8,-,N/A,,Clear,350,2013-10-05 21:56:00
3:56 PM,84.0,30.9,15,30.13,10.0,North,6.9,-,N/A,,Clear,350,2013-10-05 22:56:00
4:56 PM,82.0,30.0,15,30.12,10.0,NNW,5.8,-,N/A,,Clear,330,2013-10-05 23:56:00
5:56 PM,81.0,30.0,16,30.11,10.0,WNW,5.8,-,N/A,,Clear,300,2013-10-06 00:56:00
6:56 PM,75.0,34.0,22,30.12,10.0,NW,3.5,-,N/A,,Clear,310,2013-10-06 01:56:00
7:56 PM,73.0,36.0,26,30.12,10.0,Calm,Calm,-,N/A,,Clear,0,2013-10-06 02:56:00
8:56 PM,69.1,37.0,31,30.13,10.0,Calm,Calm,-,N/A,,Clear,0,2013-10-06 03:56:00
9:56 PM,64.9,37.0,36,30.13,10.0,Calm,Calm,-,N/A,,Clear,0,2013-10-06 04:56:00
10:56 PM,64.0,37.9,38,30.14,10.0,Calm,Calm,-,N/A,,Clear,0,2013-10-06 05:56:00
11:56 PM,63.0,36.0,37,30.13,10.0,Calm,Calm,-,N/A,,Clear,0,2013-10-06 06:56:00